Domov               UVHVVR             MKGP            O straneh              
ZDRAVSTVENO VARSTVO RASTLIN
  MREŽA AGROMET. POSTAJ
 ► PROGNOSTIČNA OBVESTILA
AGROMETEOROLOŠKI PODATKI -
ARSO
OBVLADOVANJE TVEGANJ ZARADI
NEUGODNIH VREMENSKIH RAZMER
  ► NARAVNE NESREČE
  ► SUŠA/MOČA
  ► NAMAKANJE
  ► ŽLED (gozdarstvo)
KARTOGRAFSKI PRIKAZI
SPLETNE POVEZAVE
PROJEKTI IN PUBLIKACIJE

AGROMETEOROLOŠKA MREŽA: VREMENSKE POSTAJE IN FENOLOŠKA OPAZOVANJA

Pregled podatkov za lokacijo Dravinjski vrh, meteorološka postaja 57108

Pregled senzorjev na lokaciji

ID Ime Zadnja
vrednost
Datum
zadnje
spremembe
Tip
senzorja
3999 Padavine (mm) 0 mm 20.1.2018 11:30 Generic 0.2 mm
4000 Omočenost lista (U) 0 U 20.1.2018 11:30 A730WET
4001 Temperatura 2 m (°C) 4,64 °C 20.1.2018 11:30 Generic -40 - +60 °C
4002 Relativna vlaga 2 m (% RH) 61,59 % RH 20.1.2018 11:30 Generic 0 - 100 %

Pregled podatkov zadnjih 24 ur

Zap.
št.
Datum in čas Dravinjski vrh
Omočenost
lista
Padavine Relativna
vlaga
2
m
Temperatura
2
m
0 20.1.2018 11:30 0 0 61,59 4,64
1 20.1.2018 11:00 0 0 67,46 3,45
2 20.1.2018 10:30 0 0 68,85 3,11
3 20.1.2018 10:00 0 0 70,34 2,63
4 20.1.2018 09:30 0 0 73,59 1,95
5 20.1.2018 09:00 0 0 78,86 0,88
6 20.1.2018 08:30 0 0 81,63 0,47
7 20.1.2018 08:00 0 0 84,05 0,18
8 20.1.2018 07:30 0 0 84,86 0,2
9 20.1.2018 07:00 0 0 84,38 0,31
10 20.1.2018 06:30 0 0 81,96 0,61
11 20.1.2018 06:00 1 0 83,13 0,5
12 20.1.2018 05:30 1 0 83,1 0,62
13 20.1.2018 05:00 1 0 84,98 0,45
14 20.1.2018 04:30 2 0 83,81 0,71
15 20.1.2018 04:00 1 0 84,27 0,69
16 20.1.2018 03:30 1 0 86,67 0,41
17 20.1.2018 03:00 1 0 87,04 0,33
18 20.1.2018 02:30 1 0 86,31 0,45
19 20.1.2018 02:00 1 0 86,05 0,53
20 20.1.2018 01:30 1 0 87,14 0,56
21 20.1.2018 01:00 1 0 86,24 0,91
22 20.1.2018 00:30 0 0 85,54 1,14
23 20.1.2018 00:00 0 0 85,82 1,24
24 19.1.2018 23:30 0 0 86,52 1,25
25 19.1.2018 23:00 0 0 85,74 1,54
26 19.1.2018 22:30 0 0 85,99 1,81
27 19.1.2018 22:00 0 0 84,57 2,03
28 19.1.2018 21:30 0 0 83,32 2,19
29 19.1.2018 21:00 0 0 81,74 2,54
30 19.1.2018 20:30 0 0 81,58 2,64
31 19.1.2018 20:00 0 0 80,76 2,76
32 19.1.2018 19:30 0 0 77,96 3,06
33 19.1.2018 19:00 0 0 76,83 3,25
34 19.1.2018 18:30 0 0 76,18 3,47
35 19.1.2018 18:00 0 0 69,16 4,03
36 19.1.2018 17:30 0 0 69,86 4,11
37 19.1.2018 17:00 0 0 68,04 4,35
38 19.1.2018 16:30 0 0 71,76 4,27
39 19.1.2018 16:00 0 0 61,95 5,09
40 19.1.2018 15:30 1 0 58,64 5,42
41 19.1.2018 15:00 5 0 66,98 4,82
42 19.1.2018 14:30 7 0,6 76,6 4,4
43 19.1.2018 14:00 9 0,4 86,45 3,21
44 19.1.2018 13:30 10 0,2 79,76 3,46
45 19.1.2018 13:00 10 0,2 72,97 3,73
46 19.1.2018 12:30 10 0,4 79,3 4,89
© 2011 Ministrstvo za kmetijstvo, gozdarstvo in prehrano. Vse pravice pridržane.